sat.trackr.live / text

‹ back to catalog

CORVUS BC1

NORAD 42847 · 2017-042Y

PAYLOAD ACTIVE UNKNOWN

§ Identity

Operator
Country
US
Launch date
2017-07-14
Launch site
TYMSC
Launch vehicle
Mass (kg)
RCS (m²)

Purposes: tech_demo

External: N2YO · Heavens-Above · Gunter

§ Orbital elements

Epoch: 2026-05-25T00:09:45.588096Z

Period
95.60 min
Inclination
97.4075°
Eccentricity
0.0012326
Mean motion
15.06289604 rev/d
Perigee alt
539.0 km
Apogee alt
556.1 km
Semi-major
6,925.7 km
B*
2.4383e-4
RAAN
308.0628°
Arg perigee
161.9237°
Mean anomaly
198.2432°
Rev number
48,360

§ Raw data

CORVUS BC11 42847U 17042Y   26145.00677764  .00003528  00000+0  24383-3 0  99942 42847  97.4075 308.0628 0012326 161.9237 198.2432 15.06289604483600

JSON: /api/v1/satellites/42847 · /tle

For live sub-satellite position, see the globe view (requires WebGL).

§ Visibility from observer

Set your observer location to see the next 7 days of passes ≥ 10°. The values pass through the URL so the page stays shareable.

No JS? Fill the form by hand. The geolocation button needs JavaScript.

§ Radio — SatNOGS DB

ModeDescriptionDownlinkUplink
BPSK S-band telemetry 2.240 GHz
FM TLM (inactive) 400.175 MHz

2 transmitters · refreshed weekly from db.satnogs.org